Date,TemperatureHighF,TemperatureAvgF,TemperatureLowF,DewpointHighF,DewpointAvgF,DewpointLowF,HumidityHigh,HumidityAvg,HumidityLow,PressureMaxIn,PressureMinIn,WindSpeedMaxMPH,WindSpeedAvgMPH,GustSpeedMaxMPH,PrecipitationSumIn
2013-1-1,60.4,49.6,35.2,39.7,26.3,15.3,92,49,20,30.16,30.01,11,4,21,0.00
2013-1-2,66.7,55.8,41.9,27.5,20.5,15.5,53,26,16,30.07,29.95,12,4,20,0.00
2013-1-3,67.7,58.0,45.5,24.7,18.6,12.8,42,22,14,30.09,29.96,12,4,24,0.00
2013-1-4,72.3,53.5,38.1,34.8,22.7,13.5,70,35,11,30.17,30.06,7,1,12,0.00
2013-1-5,65.6,36.4,34.7,42.8,1.3,-99.9,79,46,27,30.20,30.08,6,-248,11,0.00
2013-1-6,56.9,47.4,38.8,49.1,43.2,37.1,99,86,61,30.11,29.94,8,1,15,0.01
2013-1-7,66.5,46.9,33.7,43.4,37.1,32.0,100,74,31,30.04,29.92,5,1,10,0.01
2013-1-8,81.0,55.7,39.5,50.2,40.2,30.1,88,60,23,30.01,29.93,7,1,12,0.00
2013-1-9,66.0,53.5,40.9,54.5,46.5,38.1,92,79,42,30.02,29.91,5,1,10,0.00
2013-1-10,60.7,49.7,35.8,48.3,36.1,23.6,93,64,26,30.03,29.83,9,1,20,0.00
2013-1-11,57.3,41.4,30.3,32.0,27.2,22.9,86,61,29,30.12,29.97,6,0,12,0.00
2013-1-12,59.1,41.6,28.8,29.7,26.4,17.6,89,60,20,30.08,29.98,8,1,14,0.00
2013-1-13,58.9,43.3,30.2,31.7,24.7,11.7,80,52,22,30.10,29.96,9,1,15,0.00
2013-1-14,54.6,45.3,37.0,11.8,7.5,3.2,30,21,14,30.28,30.08,10,4,19,0.00
2013-1-15,64.1,52.1,35.5,33.0,20.5,6.9,61,30,21,30.35,30.23,9,3,17,0.00
2013-1-16,71.3,61.9,47.8,29.7,25.5,20.3,41,26,18,30.27,30.05,14,4,24,0.00
2013-1-17,75.4,66.1,56.8,23.0,19.1,13.7,25,17,11,30.10,29.97,12,5,21,0.00
2013-1-18,74.9,62.6,55.7,22.5,18.4,16.0,23,18,12,30.07,29.98,10,4,20,0.00
2013-1-19,77.4,65.8,57.6,22.9,17.2,13.7,21,16,9,30.09,29.98,11,4,20,0.00
2013-1-20,77.5,59.0,41.7,36.5,20.6,12.5,57,27,9,30.05,29.93,11,3,20,0.00
2013-1-21,80.1,64.9,44.6,24.0,15.7,6.3,42,17,7,30.01,29.91,11,4,20,0.00
2013-1-22,83.2,57.7,42.2,38.0,25.2,8.9,54,34,6,30.00,29.90,7,1,15,0.00
2013-1-23,78.0,60.4,50.3,52.4,37.8,27.1,92,46,20,30.02,29.90,3,0,8,0.03
2013-1-24,63.0,57.0,51.7,57.6,54.7,50.3,99,92,78,30.08,29.99,5,1,9,0.19
2013-1-25,62.0,58.0,55.5,57.0,54.6,49.2,98,89,64,30.05,29.87,6,1,12,0.13
2013-1-26,56.1,55.7,55.3,55.5,55.3,55.0,99,99,98,29.87,29.81,0,0,1,0.27
2013-1-28,60.7,51.0,34.4,41.1,35.1,29.7,94,57,34,30.10,29.99,5,1,9,0.00
2013-1-29,61.4,46.6,35.3,44.3,38.2,32.7,92,75,40,30.13,30.05,6,1,14,0.00
2013-1-30,71.0,50.9,38.7,48.5,42.6,36.7,94,76,41,30.24,30.12,5,1,11,0.00
2013-1-31,79.6,54.3,38.5,49.4,42.1,36.4,95,69,24,30.16,30.01,7,1,13,0.00
2013-2-1,80.7,55.9,41.4,51.3,44.4,37.0,92,69,22,30.08,30.01,8,0,15,0.00
2013-2-2,76.8,59.9,48.1,55.3,48.1,39.7,89,68,27,30.10,30.02,5,0,13,0.00
2013-2-3,77.0,57.8,44.9,53.6,48.4,43.6,95,74,34,30.05,29.91,6,1,13,0.00
2013-2-4,69.8,52.3,40.0,55.0,47.1,39.2,99,84,55,30.00,29.89,5,1,13,0.00
2013-2-5,59.1,51.0,43.9,51.6,48.4,42.6,99,91,75,30.01,29.90,3,0,13,0.00
2013-2-6,66.9,53.4,43.4,51.4,47.5,41.8,98,83,53,30.02,29.91,5,1,13,0.00
2013-2-7,62.4,49.7,39.2,50.2,44.9,38.4,100,85,63,30.05,29.88,5,1,13,0.00
2013-2-8,54.5,45.3,37.4,44.9,39.9,35.8,97,83,59,29.88,29.78,9,2,16,0.03
2013-2-9,60.4,45.2,32.6,42.8,36.7,31.6,99,76,36,30.01,29.85,5,0,13,0.04
2013-2-10,60.4,45.6,34.7,44.6,39.3,33.3,99,81,50,30.01,29.92,5,1,13,0.00
2013-2-11,65.4,47.6,33.1,42.5,33.1,22.3,99,66,21,30.16,29.98,8,2,19,0.00
2013-2-12,64.6,47.5,32.8,38.5,32.3,24.5,87,60,24,30.25,30.14,7,1,14,0.00
2013-2-13,67.8,49.6,34.8,48.6,38.1,30.6,86,67,34,30.18,30.05,7,1,13,0.00
2013-2-14,43.4,40.0,37.5,38.2,35.9,34.3,88,85,81,30.07,30.04,0,0,13,0.00
2013-2-19,56.3,49.5,41.5,44.9,43.4,40.1,96,81,61,29.74,29.63,8,2,19,0.16
2013-2-20,62.5,46.3,32.5,43.2,35.7,30.2,98,70,38,29.91,29.62,5,1,14,0.16
2013-2-21,63.6,47.1,33.8,44.0,36.8,30.4,90,70,35,30.02,29.88,6,1,14,0.00
2013-2-22,68.7,49.5,34.0,39.9,35.0,28.9,92,63,25,30.10,30.01,7,1,14,0.00
2013-2-23,66.1,51.5,35.8,51.0,39.3,27.4,87,66,36,30.08,29.81,10,2,14,0.00
2013-2-24,66.8,55.1,39.9,32.4,20.7,10.7,67,30,12,30.11,29.92,13,5,26,0.00
2013-2-25,69.7,49.7,33.3,37.9,29.8,16.0,78,52,14,30.14,29.98,7,1,15,0.00
2013-2-26,75.5,52.2,32.4,45.8,33.3,20.9,89,56,13,30.04,29.88,11,2,20,0.00
2013-2-27,75.7,58.4,42.8,31.1,23.5,14.2,51,29,11,30.20,30.03,11,2,21,0.00
2013-2-28,82.0,60.1,41.1,38.6,27.9,17.1,60,34,10,30.22,30.13,7,2,14,0.00
2013-3-1,86.2,65.8,44.8,34.7,29.0,23.0,62,29,10,30.21,30.05,8,2,17,0.00
2013-3-2,86.8,62.1,46.0,47.3,38.2,28.4,76,47,14,30.11,29.98,7,1,13,0.00
2013-3-3,71.8,57.6,46.6,52.8,47.8,41.3,94,72,44,30.02,29.88,8,1,15,0.00
2013-3-4,67.3,53.5,42.6,53.9,47.8,41.5,99,83,58,30.01,29.91,7,1,13,0.00
2013-3-5,68.8,53.4,42.9,52.9,48.5,41.6,97,84,55,30.03,29.93,8,1,14,0.00
2013-3-6,58.6,52.1,43.7,51.0,47.3,42.1,96,84,61,30.06,29.91,2,0,12,0.00
2013-3-7,62.4,53.7,48.4,51.5,47.0,38.0,99,81,42,29.92,29.72,5,1,12,0.15
2013-3-8,58.8,51.0,44.3,48.2,45.6,42.7,99,83,59,29.93,29.69,7,2,20,0.01
2013-3-9,66.1,51.9,39.5,48.4,43.5,38.5,98,76,45,30.12,29.93,7,1,12,0.01
2013-3-10,78.5,56.5,38.5,43.7,36.5,20.5,92,57,12,30.18,30.07,6,1,16,0.00
2013-3-11,73.0,55.8,39.2,48.4,41.3,34.4,85,63,31,30.08,29.95,7,1,14,0.00
2013-3-12,75.5,57.6,41.3,53.5,46.0,38.0,90,69,35,29.99,29.92,5,1,12,0.00
2013-3-13,81.5,64.8,46.6,57.1,49.3,42.3,89,61,37,30.01,29.93,6,1,12,0.00
2013-3-14,76.3,58.6,43.2,55.1,48.5,41.0,95,72,40,30.00,29.91,6,1,12,0.00
2013-3-15,73.0,57.4,48.7,58.4,52.0,46.6,98,84,59,29.93,29.84,7,1,12,0.00
2013-3-16,66.0,54.8,47.5,55.9,51.2,45.9,99,89,67,29.90,29.78,6,1,10,0.00
2013-3-17,71.3,53.7,43.4,57.1,48.9,42.4,99,86,49,29.92,29.82,6,1,11,0.00
2013-3-18,65.5,53.6,44.2,54.2,49.1,43.4,99,86,64,29.99,29.88,5,1,17,0.00
2013-3-19,70.5,56.1,45.3,57.0,50.7,44.3,99,83,60,30.02,29.93,6,1,14,0.00
2013-3-20,71.3,58.8,49.7,56.9,51.5,48.4,98,79,54,29.99,29.85,6,1,15,0.00
2013-3-21,74.3,60.3,47.0,56.1,51.2,45.1,97,74,49,29.86,29.70,7,2,14,0.00
2013-3-22,73.1,56.6,41.1,53.4,44.4,37.1,96,68,32,29.81,29.69,7,1,15,0.00
2013-3-23,73.0,54.9,38.1,53.5,42.2,30.7,87,65,31,29.90,29.80,7,1,14,0.00
2013-3-24,75.3,56.5,41.6,54.7,47.0,38.9,94,73,40,29.93,29.80,7,1,19,0.00
2013-3-25,72.3,56.2,41.4,57.7,48.3,38.3,94,76,50,29.87,29.80,6,1,13,0.00
2013-3-26,70.6,55.7,44.1,55.4,49.4,43.0,98,81,54,29.87,29.81,6,1,16,0.00
2013-3-27,71.5,56.6,45.8,55.6,50.1,44.6,98,81,53,29.95,29.83,7,1,15,0.00
2013-3-28,73.3,56.3,45.0,57.4,51.1,43.8,99,84,55,29.98,29.91,7,1,15,0.00
2013-3-29,72.6,57.5,45.4,58.3,52.5,44.3,99,85,59,30.02,29.93,6,1,15,0.00
2013-3-30,73.5,59.5,52.6,57.2,53.2,50.3,95,81,51,30.02,29.95,8,1,16,0.00
2013-3-31,67.3,58.7,53.5,60.6,54.8,51.1,96,87,64,30.02,29.95,4,1,10,0.22
2013-4-1,68.5,58.2,51.1,55.8,52.6,48.9,96,82,63,30.07,29.98,7,2,15,0.22
2013-4-2,72.4,58.4,46.5,56.5,51.5,45.4,98,80,52,30.00,29.90,6,1,13,0.00
2013-4-3,75.7,59.4,46.9,59.5,53.3,45.6,98,82,53,29.98,29.89,7,1,14,0.00
2013-4-4,72.5,60.1,54.1,58.4,54.9,52.3,96,84,57,30.02,29.91,7,1,14,0.00
2013-4-5,72.8,61.1,52.1,57.9,54.8,49.9,93,81,55,30.00,29.88,7,1,15,0.00
2013-4-6,73.8,59.2,47.2,59.0,52.5,46.1,99,80,52,29.99,29.85,6,1,17,0.00
2013-4-7,78.5,60.9,47.4,57.6,51.1,46.3,98,74,35,29.87,29.68,7,1,15,0.00
2013-4-8,71.3,58.4,50.1,50.5,43.6,31.6,94,63,24,29.74,29.55,10,2,22,0.00
2013-4-9,74.5,57.6,42.3,46.7,39.8,26.6,84,57,18,29.91,29.74,8,2,19,0.00
2013-4-10,84.3,67.8,49.5,43.8,35.4,21.3,72,36,10,30.01,29.87,7,2,15,0.00
2013-4-11,73.9,58.2,44.1,53.7,46.4,38.9,89,67,40,29.88,29.67,8,2,16,0.00
2013-4-12,72.3,57.0,45.4,56.4,50.8,44.1,98,81,55,29.77,29.69,6,1,13,0.00
2013-4-13,68.3,56.6,48.7,57.0,52.6,46.9,97,87,66,29.81,29.74,7,1,16,0.00
2013-4-14,63.4,57.7,54.3,54.7,53.0,51.4,96,85,69,29.78,29.72,5,1,18,0.00
2013-4-15,66.1,57.5,51.3,54.2,50.5,44.3,91,78,61,29.79,29.73,7,1,15,0.00
2013-4-16,67.0,54.4,41.6,46.3,42.4,37.1,95,68,37,29.92,29.76,7,1,17,0.00
2013-4-17,72.5,55.3,38.8,44.6,37.1,24.3,92,58,18,30.04,29.92,8,1,16,0.00
2013-4-18,81.0,63.1,44.9,37.4,26.7,15.5,69,29,10,30.12,30.02,8,2,18,0.00
2013-4-19,84.1,63.0,42.5,45.0,36.1,17.6,79,43,9,30.07,29.88,8,2,16,0.00
2013-4-20,90.3,64.5,44.8,56.1,45.4,35.8,79,54,18,29.90,29.78,6,1,15,0.00
2013-4-21,83.3,63.9,47.2,57.3,50.3,42.8,93,66,28,29.90,29.82,7,1,13,0.00
2013-4-22,72.3,61.3,55.3,57.5,54.6,52.4,94,80,58,29.90,29.79,7,1,13,0.00
2013-4-23,74.2,62.2,52.4,56.6,53.1,49.4,92,73,52,29.86,29.76,6,1,14,0.00
2013-4-24,63.0,57.4,53.7,56.1,54.0,51.1,94,89,76,29.90,29.80,5,0,10,0.00
2013-4-25,73.3,61.2,51.0,53.1,50.6,47.2,96,71,42,30.03,29.86,9,1,19,0.00
2013-4-26,76.0,60.5,47.0,57.4,50.5,44.8,94,72,45,30.05,30.00,7,1,16,0.00
2013-4-27,76.6,61.4,47.6,59.0,53.0,46.1,100,76,51,30.04,29.89,6,1,12,0.00
2013-4-28,75.6,60.4,51.0,60.3,54.5,49.9,97,83,57,29.92,29.75,6,1,13,0.00
2013-4-29,74.0,62.0,54.7,60.6,56.3,53.4,97,83,61,29.80,29.68,6,1,11,0.00
2013-4-30,71.8,62.6,57.6,58.1,55.6,53.3,93,79,57,29.79,29.72,7,1,13,0.00
2013-5-1,76.2,65.4,53.8,60.0,55.6,51.1,91,72,54,30.00,29.78,6,1,13,0.00
2013-5-2,81.6,58.7,46.7,51.1,39.3,14.0,96,67,8,30.04,29.98,11,2,21,0.00
2013-5-5,66.3,60.8,56.4,55.6,52.9,50.0,96,76,57,29.83,29.77,5,2,13,0.03
2013-5-6,67.7,60.4,55.7,60.5,54.3,48.7,99,82,52,29.91,29.78,4,0,13,0.13
2013-5-7,72.4,62.6,55.5,55.5,52.7,48.6,95,72,46,29.96,29.88,7,2,15,0.13
2013-5-8,72.8,61.8,53.6,55.6,51.9,47.6,96,73,44,30.00,29.96,7,2,16,0.00
2013-5-9,73.3,61.1,48.9,58.6,52.6,47.1,95,76,54,30.00,29.91,7,1,13,0.00
2013-5-10,80.5,64.5,52.1,61.5,56.0,50.8,97,76,49,30.00,29.90,7,2,14,0.00
2013-5-11,81.1,66.0,52.1,64.4,58.0,51.0,97,77,53,29.97,29.89,6,1,12,0.00
2013-5-12,89.9,71.8,53.4,64.3,58.5,52.3,98,67,38,29.94,29.81,6,1,12,0.00
2013-5-13,91.8,71.6,55.9,64.6,57.8,52.8,91,66,34,29.87,29.79,6,1,12,0.00
2013-5-14,75.2,62.0,52.0,60.0,54.4,49.5,97,78,51,29.90,29.80,7,2,13,0.00
2013-5-15,74.5,61.4,48.8,59.3,53.6,47.4,98,77,56,29.94,29.84,6,2,16,0.00
2013-5-16,73.7,61.9,50.6,59.4,54.6,48.8,95,78,60,29.89,29.80,6,1,14,0.00
2013-5-17,74.8,62.4,52.2,58.9,53.9,49.5,96,76,51,29.89,29.80,8,2,14,0.00
2013-5-18,75.7,62.5,48.9,59.5,52.7,47.2,96,73,47,29.94,29.86,7,2,18,0.00
2013-5-19,80.3,64.4,48.4,59.0,53.3,46.7,97,71,41,29.89,29.75,7,1,17,0.00
2013-5-20,80.6,66.6,50.8,61.5,56.1,49.1,98,72,50,29.84,29.77,7,2,15,0.00
2013-5-21,78.8,64.7,52.8,64.1,57.2,51.2,97,78,56,29.84,29.72,7,1,14,0.00
2013-5-22,75.5,62.5,52.2,59.7,53.3,47.9,94,74,48,29.75,29.66,8,2,16,0.00
2013-5-23,74.0,61.1,49.7,55.8,50.7,46.4,92,71,49,29.85,29.73,7,2,16,0.00
2013-5-24,74.3,60.9,48.1,58.4,51.4,45.5,93,73,51,29.88,29.80,7,2,20,0.00
2013-5-25,75.0,60.8,47.6,58.4,51.6,45.1,95,74,53,29.91,29.86,7,2,15,0.00
2013-5-26,73.8,61.5,47.6,58.4,52.6,45.9,96,74,54,29.93,29.88,7,2,13,0.00
2013-5-27,77.1,63.0,49.8,58.8,53.9,48.1,96,74,48,29.90,29.74,8,1,16,0.00
2013-5-28,81.0,66.2,52.3,61.3,56.1,50.3,96,73,45,29.79,29.64,7,1,12,0.00
2013-5-29,85.1,66.9,52.3,61.3,55.7,50.6,97,71,36,29.72,29.61,6,1,15,0.00
2013-5-30,80.1,66.1,51.2,62.9,56.6,49.5,98,74,51,29.77,29.66,7,2,13,0.00
2013-5-31,78.5,65.8,52.8,63.7,57.8,51.1,97,77,56,29.81,29.71,6,1,13,0.00
2013-6-1,84.5,67.4,54.3,65.2,59.0,52.6,97,77,49,29.75,29.63,5,1,13,0.00
2013-6-2,77.0,64.1,55.5,65.1,59.0,53.8,98,84,64,29.72,29.67,7,2,14,0.00
2013-6-3,78.7,66.3,60.1,61.7,58.6,56.1,94,78,53,29.79,29.69,7,1,13,0.00
2013-6-4,76.0,65.3,54.1,61.5,57.7,51.2,91,78,58,29.88,29.78,6,2,13,0.00
2013-6-5,74.8,61.4,50.2,60.8,55.1,48.6,97,81,59,29.91,29.83,6,1,13,0.00
2013-6-6,74.3,62.2,51.3,61.7,56.3,49.6,97,82,63,29.85,29.78,6,1,13,0.00
2013-6-7,76.0,64.8,56.7,62.4,58.2,53.9,93,80,61,29.82,29.68,6,1,13,0.00
2013-6-8,74.5,65.7,61.1,63.1,59.2,57.3,89,80,64,29.80,29.68,7,2,14,0.00
2013-6-9,77.6,65.9,59.1,64.4,59.0,55.1,93,79,60,29.82,29.77,8,1,14,0.00
2013-6-10,77.5,66.9,60.0,59.3,56.8,53.3,90,72,50,29.86,29.79,7,1,13,0.00
2013-6-11,81.3,67.8,54.8,63.8,59.0,53.1,97,75,51,29.85,29.78,6,1,12,0.00
2013-6-12,75.0,64.2,59.8,62.1,58.6,56.8,94,83,63,29.89,29.83,6,1,14,0.00
2013-6-13,76.8,66.1,57.1,63.0,58.7,54.0,92,78,60,29.92,29.80,6,1,13,0.00
2013-6-14,77.0,64.8,51.2,63.1,57.7,49.8,99,79,59,29.82,29.74,7,2,15,0.00
2013-6-15,75.4,66.4,60.4,61.3,58.2,55.8,91,76,57,29.88,29.78,7,2,20,0.00
2013-6-16,77.5,65.8,56.0,61.9,57.9,53.3,91,77,55,29.94,29.85,6,1,15,0.00
2013-6-17,80.2,64.2,51.5,63.5,56.9,50.2,98,79,51,29.89,29.77,6,1,14,0.00
2013-6-18,78.2,65.4,52.7,61.9,56.3,51.1,98,75,49,29.83,29.73,7,2,15,0.00
2013-6-19,85.3,65.9,51.8,58.8,53.4,45.8,96,68,26,29.77,29.67,7,1,13,0.00
2013-6-20,82.2,66.8,51.2,59.6,53.8,48.9,93,67,36,29.75,29.70,6,2,14,0.00
2013-6-21,82.5,67.5,51.9,62.4,55.6,49.6,93,68,42,29.79,29.73,7,2,13,0.00
2013-6-22,79.1,66.1,53.0,62.5,56.8,51.1,95,74,52,29.81,29.72,6,2,13,0.00
2013-6-23,74.0,63.4,52.4,61.5,56.6,50.3,96,79,64,29.78,29.70,7,1,14,0.00
2013-6-24,75.3,64.8,54.4,62.0,58.4,52.8,97,81,59,29.85,29.72,5,1,16,0.00
2013-6-25,76.6,69.0,61.0,64.1,60.9,57.6,93,76,61,29.89,29.80,7,2,15,0.00
2013-6-26,84.0,71.3,57.6,68.1,61.5,55.7,96,73,53,29.88,29.81,6,1,13,0.00
2013-6-27,87.3,73.7,61.3,69.5,63.7,58.7,92,73,50,29.91,29.85,6,1,13,0.00
2013-6-28,88.4,74.2,60.9,68.4,63.3,58.9,96,71,46,29.88,29.77,6,1,13,0.00
2013-6-29,91.6,75.8,59.9,70.1,63.1,57.7,94,68,43,29.78,29.63,6,1,13,0.00
2013-6-30,94.5,77.1,66.1,68.9,64.6,60.3,89,68,41,29.71,29.61,6,1,15,0.00
2013-7-1,86.0,73.0,62.4,69.0,65.2,60.9,96,78,56,29.78,29.69,6,1,14,0.00
2013-7-2,81.7,70.5,61.7,68.1,63.9,60.2,97,81,60,29.90,29.77,7,1,14,0.00
2013-7-3,81.9,68.6,61.3,67.9,62.9,59.8,97,83,59,29.82,29.71,6,1,14,0.00
2013-7-4,80.2,69.4,62.0,67.2,62.6,59.8,96,80,59,29.75,29.65,6,1,13,0.00
2013-7-5,80.5,69.3,63.1,66.4,62.7,60.3,93,81,59,29.75,29.66,6,1,13,0.00
2013-7-6,80.7,69.2,60.8,67.1,62.8,58.5,93,81,61,29.73,29.65,6,1,15,0.00
2013-7-7,81.0,68.5,59.6,65.7,61.4,56.4,95,80,54,29.77,29.68,6,1,15,0.00
2013-7-8,85.4,68.6,56.8,65.6,60.1,54.6,97,77,46,29.83,29.76,6,1,13,0.00
2013-7-9,86.7,69.9,55.5,66.3,60.1,54.1,97,74,46,29.88,29.81,6,1,17,0.00
2013-7-10,83.8,68.9,58.5,66.7,61.8,56.5,94,79,55,29.88,29.79,4,1,13,0.00
2013-7-11,78.5,70.9,63.3,67.9,64.3,60.6,91,80,68,29.86,29.79,4,0,13,0.00
2013-7-12,81.0,68.8,59.8,68.3,62.4,58.3,98,81,59,29.83,29.77,6,2,13,0.00
2013-7-13,81.2,68.4,58.4,66.1,61.0,56.5,98,79,54,29.87,29.77,6,1,12,0.00
2013-7-14,83.6,69.2,55.3,66.0,59.5,53.8,98,74,46,29.84,29.71,7,1,13,0.00
2013-7-15,83.0,68.1,55.7,62.9,57.6,52.7,96,72,43,29.78,29.72,7,2,16,0.00
2013-7-16,82.5,66.5,52.8,62.1,55.8,50.8,97,72,42,29.88,29.77,6,2,13,0.00
2013-7-17,85.4,67.8,50.9,61.3,55.1,48.7,96,68,38,29.93,29.86,6,2,15,0.00
2013-7-18,82.2,67.4,54.5,63.9,57.7,52.2,96,74,48,29.89,29.77,6,1,13,0.00
2013-7-19,81.0,66.6,53.9,62.6,57.4,52.2,96,74,51,29.82,29.72,6,1,13,0.00
2013-7-20,80.9,67.1,56.7,66.2,59.8,53.2,94,78,59,29.78,29.67,6,1,11,0.00
2013-7-21,75.0,67.5,62.5,66.0,62.5,59.7,92,85,71,29.83,29.71,4,1,9,0.00
2013-7-22,79.6,69.2,62.8,68.0,63.0,59.2,97,82,63,29.89,29.81,6,2,12,0.00
2013-7-23,79.5,68.4,60.7,65.3,61.1,58.4,96,79,57,29.94,29.85,7,2,14,0.00
2013-7-24,78.1,66.5,59.0,64.5,60.1,57.1,96,81,59,29.89,29.80,7,1,13,0.00
2013-7-25,78.4,66.3,57.6,64.6,59.8,55.6,96,81,59,29.92,29.83,6,2,13,0.00
2013-7-26,78.6,66.4,59.5,65.1,60.0,57.1,94,81,58,30.00,29.89,5,1,11,0.00
2013-7-27,79.4,66.8,58.3,64.0,59.5,56.3,98,79,57,29.92,29.78,6,2,11,0.00
2013-7-28,76.0,65.2,59.2,63.9,59.6,57.1,94,83,65,29.84,29.77,7,1,15,0.00
2013-7-29,77.2,66.6,57.9,63.0,58.9,54.6,93,78,58,29.94,29.82,6,2,13,0.00
2013-7-30,75.5,64.7,55.7,62.4,57.8,53.4,95,80,61,30.02,29.94,7,2,16,0.00
2013-7-31,75.3,63.0,54.1,61.7,57.0,52.1,95,82,59,30.01,29.91,7,1,16,0.00
2013-8-1,76.5,64.9,56.3,61.9,57.7,54.0,93,79,58,29.94,29.81,5,1,16,0.00
2013-8-2,78.3,64.6,52.0,63.6,57.8,50.6,98,80,59,29.87,29.81,6,1,16,0.00
2013-8-3,77.8,64.4,54.9,63.6,58.1,52.8,96,82,59,29.91,29.84,6,1,16,0.00
2013-8-4,76.7,63.8,54.9,63.1,57.7,52.7,97,82,59,29.93,29.84,6,1,16,0.00
2013-8-5,78.3,63.4,52.5,62.5,56.5,51.2,98,80,53,29.92,29.83,6,1,16,0.00
2013-8-6,77.7,63.9,53.6,62.2,57.4,51.6,96,81,56,29.95,29.87,6,1,16,0.00
2013-8-7,76.8,64.1,55.5,62.0,57.6,54.4,96,81,56,29.99,29.89,6,1,16,0.00
2013-8-8,77.1,64.2,53.7,62.8,57.5,52.6,98,81,55,29.91,29.82,6,2,16,0.00
2013-8-9,77.1,64.1,53.7,62.9,57.5,52.3,99,81,58,29.87,29.81,6,1,16,0.00
2013-8-10,77.3,63.7,51.7,62.4,56.5,-99.9,96,80,58,29.91,29.86,7,-4,16,0.00
2013-8-11,78.1,64.4,54.9,63.3,58.3,53.2,98,82,57,29.91,29.80,6,1,15,0.00
2013-8-12,78.8,65.2,56.1,64.1,59.1,54.7,98,82,59,29.88,29.80,7,1,15,0.00
2013-8-13,80.3,66.2,56.6,65.2,59.7,54.7,97,81,58,29.88,29.78,6,1,13,0.00
2013-8-14,83.2,68.0,56.3,66.4,60.8,55.5,98,80,54,29.84,29.73,5,1,13,0.00
2013-8-15,82.8,67.4,57.3,67.0,61.4,56.5,98,83,57,29.85,29.79,6,1,12,0.00
2013-8-16,82.8,69.6,58.7,67.1,61.8,57.3,98,78,53,29.87,29.80,6,1,13,0.00
2013-8-17,82.0,67.8,57.2,64.9,59.8,55.5,98,78,53,29.86,29.72,6,1,13,0.00
2013-8-18,81.0,66.0,55.3,65.7,59.6,54.2,97,82,56,29.81,29.71,6,1,13,0.00
2013-8-19,79.5,66.5,58.7,66.3,61.0,56.8,96,84,62,29.85,29.76,6,1,14,0.00
2013-8-20,82.8,66.9,58.9,65.4,60.2,56.0,97,81,53,29.86,29.76,6,1,13,0.00
2013-8-21,80.9,66.4,53.9,63.4,57.9,52.5,98,76,49,29.84,29.75,6,1,12,0.00
2013-8-22,87.4,69.4,54.9,63.3,57.3,53.1,97,69,37,29.83,29.73,6,1,14,0.00
2013-8-23,84.6,67.6,52.3,63.0,56.5,50.0,95,71,41,29.77,29.65,5,1,12,0.00
2013-8-24,83.3,65.8,51.6,64.8,57.2,49.8,97,77,46,29.78,29.67,6,1,13,0.00
2013-8-25,84.8,67.2,51.8,63.9,57.3,50.4,97,74,43,29.82,29.74,6,1,11,0.00
2013-8-26,88.7,70.5,51.2,63.4,55.9,48.1,93,64,32,29.82,29.73,7,1,17,0.00
2013-8-27,87.3,73.2,64.4,65.9,60.6,57.2,87,67,38,29.76,29.68,6,1,18,0.00
2013-8-28,89.5,72.9,59.7,65.5,59.1,53.8,92,66,34,29.79,29.68,6,1,13,0.00
2013-8-29,93.2,75.3,58.0,65.9,58.6,53.5,87,60,33,29.83,29.76,6,1,13,0.00
2013-8-30,97.6,79.8,64.1,70.1,63.9,57.9,86,61,36,29.85,29.79,6,1,13,0.00
2013-8-31,91.9,79.2,68.6,73.2,66.9,61.3,85,67,48,29.86,29.77,7,2,15,0.00
2013-9-1,88.8,77.9,67.9,72.4,67.4,63.3,88,71,56,29.83,29.75,7,2,14,0.00
2013-9-2,88.2,74.6,63.9,71.3,66.5,61.8,95,77,54,29.82,29.71,6,1,12,0.00
2013-9-3,91.0,76.8,63.5,71.0,65.8,61.6,96,71,48,29.79,29.72,6,1,15,0.00
2013-9-4,91.3,75.1,61.8,67.7,63.0,59.8,94,69,42,29.81,29.74,6,1,16,0.00
2013-9-5,94.7,75.3,59.5,67.0,61.9,57.5,95,67,37,29.79,29.72,6,1,13,0.00
2013-9-6,95.3,76.1,59.2,65.1,60.2,56.1,91,62,33,29.77,29.68,6,1,13,0.00
2013-9-7,92.6,72.4,58.2,64.4,58.7,53.4,89,65,34,29.77,29.70,6,1,11,0.00
2013-9-8,83.7,68.3,58.2,64.7,59.4,56.2,96,76,48,29.76,29.65,6,1,14,0.00
2013-9-9,77.1,64.5,57.0,63.4,58.9,55.1,98,83,61,29.72,29.65,5,1,13,0.00
2013-9-10,78.2,65.8,58.6,63.1,59.3,56.0,95,81,57,29.84,29.71,6,1,14,0.00
2013-9-11,79.5,66.6,56.9,64.1,59.5,54.9,95,79,59,29.91,29.83,6,1,12,0.00
2013-9-12,84.7,67.4,54.2,64.8,58.5,53.0,98,76,48,29.84,29.73,7,1,14,0.00
2013-9-13,85.0,68.3,54.1,64.7,58.3,52.3,96,73,46,29.73,29.57,5,1,11,0.00
2013-9-14,85.7,70.0,56.1,67.1,59.0,54.4,97,71,42,29.62,29.54,6,1,12,0.00
2013-9-15,85.4,68.5,56.1,66.2,59.4,54.1,97,75,46,29.67,29.57,6,1,12,0.00
2013-9-16,87.4,68.5,56.0,64.6,58.8,54.3,96,74,43,29.73,29.65,5,1,11,0.00
2013-9-17,77.6,63.4,50.8,63.8,56.7,49.7,98,81,58,29.73,29.63,6,1,14,0.00
2013-9-18,77.7,55.7,54.3,62.7,34.8,-99.9,98,68,58,29.72,29.65,6,-148,12,0.00
2013-9-19,78.8,47.3,54.9,64.6,10.5,-99.9,99,53,59,29.73,29.65,5,-314,12,0.00
2013-9-20,73.8,27.1,59.3,64.2,-34.4,-99.9,95,34,69,29.79,29.71,6,-591,12,0.00
2013-9-21,76.6,22.0,64.7,62.1,-50.9,-99.9,82,21,57,29.82,29.70,8,-693,16,0.00
2013-9-22,79.7,20.4,71.0,57.3,-59.4,-99.9,62,12,36,29.76,29.66,11,-735,13,0.00
2013-9-23,-200.0,0.0,200.0,-99.9,-99.9,-99.9,0,0,100,29.72,29.71,0,-999,11,0.00
2013-9-24,87.8,35.1,73.5,57.3,-35.7,-99.9,52,15,25,29.83,29.72,6,-576,14,0.00
2013-9-25,77.4,20.5,66.1,62.1,-56.3,-99.9,67,16,48,29.74,29.58,11,-722,13,0.00
2013-9-26,76.3,20.1,67.2,54.6,-59.0,-99.9,57,12,34,29.80,29.61,7,-724,15,0.00
2013-9-27,86.6,21.8,74.3,40.7,-64.2,-99.9,25,5,15,29.90,29.78,6,-734,15,0.00
2013-9-28,90.5,27.1,76.1,46.9,-54.0,-99.9,29,7,13,29.91,29.85,7,-671,16,0.00
2013-10-1,79.2,33.7,69.7,61.2,-28.9,-99.9,68,26,49,29.80,29.76,5,-553,14,0.00
2013-10-2,77.8,20.3,65.9,61.6,-55.6,-99.9,78,18,53,29.87,29.77,6,-722,14,0.00
2013-10-3,76.6,18.5,65.8,61.1,-59.0,-99.9,76,17,57,29.83,29.71,9,-742,14,0.00
2013-10-4,83.6,22.9,78.4,29.6,-65.5,-99.9,15,3,9,29.94,29.77,15,-717,25,0.00
2013-10-5,88.2,23.4,81.7,29.5,-65.6,-99.9,14,3,9,30.04,29.93,18,-724,23,0.00
2013-10-6,-200.0,0.0,200.0,-99.9,-99.9,-99.9,0,0,100,29.98,29.95,0,-999,14,0.00
2013-10-16,87.8,40.7,74.4,38.7,-35.2,-99.9,25,8,10,29.94,29.87,5,-510,20,0.00
2013-10-17,82.7,21.1,69.1,50.4,-61.2,-99.9,51,8,20,29.92,29.82,5,-729,20,0.00
2013-10-18,80.8,21.5,71.9,61.1,-56.5,-99.9,57,14,32,29.89,29.83,6,-721,20,0.00
2013-10-19,82.2,34.1,51.0,58.4,-23.5,-99.9,89,31,31,29.92,29.85,7,-501,20,0.00
2013-10-20,76.5,58.0,43.3,61.0,50.9,39.7,94,79,50,29.88,29.80,6,1,20,0.00
2013-10-21,73.6,58.5,46.7,60.4,53.6,45.6,97,85,61,29.89,29.81,5,1,20,0.00
2013-10-22,75.4,58.4,48.8,59.5,53.6,47.4,98,86,57,29.92,29.81,4,1,20,0.00
2013-10-23,70.8,58.9,52.8,58.3,54.6,50.8,97,87,64,29.88,29.79,5,0,20,0.00
2013-10-24,73.0,62.0,55.3,57.6,55.1,52.2,91,79,57,29.95,29.85,6,1,20,0.00
2013-10-25,75.0,60.1,52.2,59.2,55.0,50.6,96,84,56,30.03,29.91,4,0,20,0.00
2013-10-26,79.2,59.5,45.8,61.8,53.5,44.7,100,83,50,30.00,29.87,5,1,20,0.00
2013-10-27,72.4,57.7,43.8,60.4,52.3,42.5,99,84,58,29.88,29.71,7,1,20,0.00
2013-10-28,66.5,58.7,53.5,54.4,50.0,44.5,88,74,47,29.83,29.69,8,2,20,0.00
2013-10-29,68.0,55.9,46.1,51.6,48.6,44.7,97,78,51,29.92,29.83,6,1,14,0.00
2013-10-30,74.9,56.1,44.3,52.0,47.1,39.8,98,76,30,29.97,29.88,6,1,14,0.00
2013-10-31,81.0,58.0,40.7,49.8,44.0,34.3,97,67,19,29.99,29.90,5,1,15,0.00
2013-11-1,88.3,62.5,45.6,50.7,41.8,32.5,79,53,15,30.00,29.85,5,1,14,0.00
2013-11-2,84.4,61.7,49.4,52.7,44.3,36.3,86,58,19,29.89,29.76,6,1,14,0.00
2013-11-3,71.5,57.2,46.7,57.5,51.1,43.6,97,81,56,29.82,29.72,5,1,14,0.00
2013-11-4,70.8,58.5,47.6,55.7,52.3,45.3,95,81,55,29.86,29.69,5,1,14,0.00
2013-11-5,73.8,58.1,43.1,45.5,29.6,17.6,94,42,13,30.07,29.86,11,2,23,0.00
2013-11-6,81.7,66.2,46.3,35.5,23.6,16.8,50,22,9,30.11,30.01,8,2,18,0.00
2013-11-7,88.4,64.0,50.2,44.3,34.5,22.1,60,36,10,30.02,29.90,5,0,14,0.00
2013-11-8,80.4,59.0,45.7,57.4,43.4,31.4,91,60,24,29.92,29.82,4,1,14,0.00
2013-11-9,74.9,56.3,42.5,57.6,48.4,39.1,95,77,43,29.98,29.89,5,1,14,0.00
2013-11-10,86.0,57.1,43.8,54.7,46.1,17.6,91,72,9,30.02,29.94,8,1,18,0.00
2013-11-11,75.2,56.3,42.0,53.7,45.9,38.1,92,72,36,30.04,29.94,5,0,14,0.00
2013-11-12,76.8,59.0,49.0,57.4,49.8,41.8,92,73,42,30.07,29.98,5,0,14,0.00
2013-11-13,93.5,69.5,48.7,46.6,38.0,27.5,75,39,10,29.98,29.80,7,1,14,0.00
2013-11-14,92.4,66.6,50.7,57.8,45.9,32.0,89,53,12,29.84,29.65,7,1,14,0.00
2013-11-15,71.0,56.9,45.9,57.0,50.7,43.3,94,81,54,29.67,29.57,6,1,13,0.00
2013-11-16,67.8,58.6,49.4,55.9,53.4,47.5,96,84,64,29.84,29.64,6,1,14,0.02
2013-11-17,70.6,57.1,48.2,55.5,51.2,46.4,100,83,50,30.00,29.83,5,0,11,0.02
2013-11-18,68.0,55.1,44.8,55.9,50.5,43.7,100,86,64,30.07,29.96,5,1,11,0.00
2013-11-19,67.7,57.0,48.7,55.1,51.7,46.9,97,83,63,30.00,29.85,4,0,9,0.00
2013-11-20,70.0,59.1,51.3,59.3,54.4,49.3,97,85,60,29.87,29.76,0,0,3,0.10
2013-11-21,67.9,59.1,55.0,59.7,55.4,44.6,99,88,68,29.80,29.71,0,0,1,0.39
2013-11-22,62.3,55.7,53.2,45.7,42.0,40.0,69,60,51,29.90,29.77,0,0,1,0.00
2013-11-23,65.3,56.2,49.6,45.3,42.6,40.1,76,61,44,30.01,29.88,0,0,1,0.00
2013-11-24,73.0,56.8,45.2,48.3,44.3,40.6,88,66,33,30.11,29.99,0,0,1,0.00
2013-11-25,75.3,55.5,40.9,49.4,42.8,38.0,94,67,28,30.14,30.05,0,0,0,0.00
2013-11-26,76.5,59.1,44.1,55.1,45.6,36.6,87,64,25,30.09,29.94,0,0,0,0.00
2013-11-27,79.3,60.9,48.1,49.9,43.2,37.1,85,56,23,29.94,29.76,0,0,0,0.00
2013-11-28,69.0,56.0,45.0,51.1,45.7,40.8,90,70,37,29.95,29.78,0,0,0,0.00
2013-11-29,72.0,59.7,50.6,53.3,50.0,45.4,96,72,48,30.08,29.94,0,0,0,0.03
2013-11-30,80.8,58.3,46.0,53.0,44.3,40.0,89,65,24,30.09,29.97,0,0,0,0.00
2013-12-1,82.6,62.7,46.5,43.1,38.2,32.5,79,45,18,30.13,30.00,0,0,0,0.00
2013-12-2,73.4,55.4,44.8,52.4,39.9,36.6,79,59,30,30.03,29.87,0,0,0,0.00
2013-12-3,60.7,55.4,47.6,52.3,47.0,42.1,81,73,65,29.67,29.63,0,0,0,0.00
2013-12-4,66.2,47.1,33.9,43.8,31.7,16.9,88,61,16,29.87,29.67,0,0,0,0.00
2013-12-5,61.5,44.0,31.6,37.8,31.8,25.8,89,66,32,30.01,29.85,0,0,0,0.00
2013-12-6,61.4,43.4,31.4,43.0,35.7,28.3,95,76,47,30.08,29.99,0,0,0,0.00
2013-12-7,59.0,43.1,32.9,51.1,38.9,29.9,98,86,52,30.03,29.87,0,0,0,0.19
2013-12-8,59.7,41.0,28.5,38.1,30.9,22.1,95,71,35,30.14,30.00,0,0,0,0.00
2013-12-10,68.1,53.4,39.0,23.6,17.1,6.4,50,27,12,30.15,30.01,0,0,0,0.00
2013-12-11,73.3,57.4,37.3,26.4,21.4,16.1,59,27,13,30.09,30.01,0,0,0,0.00
2013-12-12,71.5,52.3,41.1,45.7,33.8,21.8,77,53,17,30.11,30.02,0,0,0,0.00
2013-12-13,67.2,47.5,35.2,50.9,39.6,32.1,94,76,43,30.14,30.03,0,0,0,0.00
2013-12-14,74.5,61.3,38.2,37.1,29.0,22.3,92,33,17,30.21,30.10,0,0,0,0.00
2013-12-15,79.9,64.8,50.1,34.7,29.1,23.9,46,28,14,30.18,30.00,0,0,0,0.00
2013-12-16,86.2,67.7,55.0,35.7,32.1,26.8,48,29,13,30.04,29.95,0,0,0,0.00
2013-12-17,88.5,71.1,59.7,50.1,43.1,30.4,67,41,13,30.01,29.89,0,0,0,0.00
2013-12-18,69.8,59.2,51.9,56.0,50.3,41.0,92,73,45,29.89,29.75,0,0,0,0.00
2013-12-19,61.3,52.7,40.8,51.7,45.6,37.7,92,78,54,29.76,29.60,0,0,0,0.00
2013-12-20,69.5,49.7,36.7,44.5,38.5,30.9,94,71,25,29.85,29.70,0,0,0,0.00
2013-12-21,66.7,49.3,36.6,50.3,42.5,33.8,96,79,48,30.00,29.82,0,0,0,0.00
2013-12-22,68.2,49.9,39.7,53.3,44.8,38.1,98,84,57,30.13,30.00,0,0,0,0.00
2013-12-26,80.9,68.7,48.3,32.6,22.8,15.3,44,19,9,30.09,29.98,0,0,0,0.00
2013-12-27,87.2,58.0,40.8,43.9,31.0,16.0,67,41,8,30.06,29.93,0,0,0,0.00
2013-12-28,73.9,54.9,41.3,51.2,38.8,29.5,86,58,22,29.94,29.82,0,0,0,0.00
2013-12-29,74.9,58.2,39.0,36.8,25.8,13.0,85,36,12,30.05,29.91,0,0,0,0.00
2013-12-30,75.5,53.2,41.0,40.0,30.1,21.0,66,45,17,30.15,30.05,0,0,0,0.00
2013-12-31,70.8,50.5,35.9,49.0,33.6,27.1,84,56,26,30.11,29.99,0,0,0,0.00
2014-1-2,83.3,63.4,45.2,47.9,40.8,31.3,80,48,17,30.01,29.89,0,0,0,0.00